Theta_e
327 326 321 324 326 328 329 329 326 328 330 327 329 329 330 331 330 330 333 335 334 335 336 338 335 336 335 334 333 332 331 331 330 330 330 330 330 330 330 330 329 331 333 329 328 329 328 328 327
322 323 323 326 328 326 327 323 328 328 331 328 329 330 332 332 334 335 335 335 334 334 335 338 335 336 334 334 333 331 330 330 330 329 330 330 329 329 330 330 329 329 330 329 328 330 327 327 327
323 321 325 327 328 327 328 326 326 331 330 331 332 332 332 333 335 334 334 335 334 334 334 337 335 335 334 334 333 330 331 331 328 329 329 330 329 329 329 329 329 329 329 329 328 328 328 327 326
324 325 323 328 328 327 326 325 326 333 330 327 332 332 332 332 335 333 333 334 334 333 334 336 335 335 334 334 332 328 330 331 330 328 329 329 328 328 328 329 328 329 329 329 328 328 327 326 325
323 326 328 327 327 326 324 326 328 332 329 330 331 330 331 333 334 333 333 334 333 331 333 336 336 335 334 334 332 330 329 331 332 329 328 328 327 328 328 328 328 328 328 328 327 327 326 323 321
331 326 333 332 326 324 324 327 330 330 328 330 331 330 330 331 333 334 333 334 332 330 333 336 335 335 334 334 332 330 329 332 331 329 328 327 327 327 327 328 327 327 327 329 328 324 320 319 319
335 336 335 330 328 326 322 322 328 328 328 330 331 330 331 333 333 334 333 333 331 329 331 335 337 335 334 334 332 331 329 329 329 328 328 327 326 326 327 327 327 327 327 326 326 322 321 319 318
325 333 333 333 335 332 324 321 321 326 328 328 330 330 328 332 333 334 332 331 329 329 329 332 336 336 336 334 331 328 329 328 328 328 327 326 325 325 326 326 326 327 327 323 323 323 322 320 318
324 336 338 335 332 331 323 326 322 319 324 328 331 331 330 332 332 333 332 330 329 330 329 330 335 336 336 335 331 327 327 328 328 327 326 326 326 325 323 326 326 326 324 322 321 321 321 320 319
333 337 337 332 330 331 326 327 328 327 327 326 326 330 331 331 333 333 332 330 329 329 330 328 330 334 335 333 331 329 328 327 327 329 328 327 326 325 324 322 323 322 322 321 321 320 319 320 321
330 336 333 329 326 325 329 326 325 329 331 328 326 324 329 331 333 333 332 330 327 326 329 329 327 330 334 332 331 329 328 327 327 328 328 327 325 324 323 323 320 321 318 322 320 319 320 320 320
331 329 329 329 325 328 329 328 328 327 331 328 325 322 320 329 332 333 332 331 328 326 328 329 327 327 330 330 330 329 327 327 327 326 326 326 325 325 324 323 322 321 319 320 320 320 320 319 318
329 327 327 327 326 327 326 327 328 327 325 326 322 316 320 323 328 331 332 332 329 327 327 328 328 327 328 330 329 328 327 327 326 326 325 324 324 324 324 324 322 320 319 319 319 320 320 320 319
327 327 326 326 326 326 327 327 325 326 326 325 323 323 325 323 326 329 332 332 330 329 328 328 328 327 327 327 328 327 326 326 326 325 324 323 322 322 322 322 322 320 319 318 319 320 320 320 320
327 330 329 327 327 327 327 328 329 326 325 325 323 322 324 323 325 328 330 331 331 330 330 328 328 328 327 326 327 326 326 325 326 326 324 323 321 321 321 320 319 319 318 318 318 318 319 320 319
330 330 331 326 329 328 328 327 325 326 326 327 326 324 322 321 323 326 328 330 330 331 330 330 328 328 328 327 327 326 326 325 324 326 326 324 321 322 322 323 321 319 318 317 318 319 319 320 320
327 329 326 325 327 329 330 329 326 326 326 325 326 326 325 322 321 323 326 329 330 330 330 330 329 328 328 327 327 326 325 325 324 325 327 326 322 322 324 324 324 323 320 318 318 319 320 320 320
326 328 325 323 323 329 330 331 328 327 327 327 326 325 324 322 320 320 324 327 329 330 329 329 329 329 328 327 327 327 327 328 327 326 327 327 325 323 323 325 325 325 323 321 321 321 321 321 321
322 325 324 323 323 325 326 327 327 327 326 326 326 325 325 326 325 319 320 324 327 330 330 330 329 329 329 328 327 327 326 326 327 326 327 327 326 325 323 323 324 325 324 324 323 323 322 321 320
325 325 325 323 322 324 325 326 325 324 325 325 325 324 323 324 324 324 320 322 327 327 329 330 329 329 329 329 328 327 326 325 325 324 325 326 326 326 324 324 323 324 324 325 324 323 322 322 321
322 323 324 323 322 324 325 327 324 323 324 324 323 323 323 323 323 323 321 319 325 327 328 330 329 329 329 328 328 328 327 325 325 324 324 325 325 325 325 324 323 323 324 324 324 323 323 323 322
323 320 321 322 322 325 322 328 322 320 319 320 322 323 324 325 324 324 323 322 320 326 328 328 329 329 329 329 328 328 327 326 325 325 324 324 324 324 324 324 324 324 324 325 325 324 323 323 323
322 320 323 322 323 323 324 327 322 320 320 320 321 321 322 324 324 324 324 323 321 321 327 328 328 330 330 329 329 328 328 327 327 326 326 325 325 324 324 324 325 324 325 325 325 324 323 323 323
320 323 323 323 324 326 325 326 327 323 322 321 320 320 321 322 323 323 323 323 322 320 323 327 328 329 330 329 329 329 328 328 328 328 328 327 327 325 325 325 326 326 325 325 325 325 324 323 323
321 324 326 328 327 328 322 327 326 322 321 321 322 322 321 320 321 321 322 322 321 320 319 323 328 328 329 329 328 328 328 328 329 329 329 328 328 327 325 325 325 326 326 326 325 325 324 324 323
322 322 324 326 326 323 321 327 324 320 320 321 321 320 319 318 318 318 318 319 320 318 316 318 322 327 327 329 328 328 329 329 329 329 329 329 329 328 326 324 324 324 325 325 325 325 324 324 324
322 324 321 324 318 324 323 322 321 319 320 320 319 318 317 314 313 311 311 315 315 317 317 315 319 323 326 327 328 328 328 329 329 329 329 329 329 328 328 327 324 324 324 323 323 323 324 323 323
318 319 323 324 327 324 319 321 321 320 319 319 317 314 312 311 309 308 307 307 309 310 312 314 315 320 323 325 327 327 328 328 329 329 329 329 328 328 327 327 327 325 324 323 321 321 321 321 321
319 319 319 319 321 321 320 318 317 318 319 318 317 312 311 309 309 307 307 304 304 304 307 309 310 315 319 323 325 326 327 327 328 328 328 328 328 327 327 326 326 326 325 323 322 322 321 320 320
318 320 320 322 321 323 322 323 313 315 316 314 314 310 308 310 310 309 308 304 305 303 303 305 308 312 316 319 322 325 326 326 327 327 327 327 326 327 326 325 325 325 325 324 322 321 321 320 320
Wind_Speed
18 14 7 1 1 1 3 3 1 3 5 2 5 2 1 3 3 3 4 10 14 17 15 14 16 16 17 15 15 15 15 13 13 13 14 14 14 15 16 16 15 17 18 17 17 18 19 18 19
13 11 3 1 1 1 3 2 2 4 2 6 5 2 4 2 3 3 10 11 17 16 16 14 17 18 17 16 15 13 15 14 13 13 13 14 14 14 15 15 14 15 15 16 17 17 18 18 18
10 9 3 1 1 4 3 1 1 5 6 4 4 2 2 2 3 7 3 14 18 16 16 15 18 17 17 16 14 12 17 12 12 12 12 12 13 13 13 15 14 14 15 15 16 16 15 16 17
6 1 2 2 3 3 2 2 2 9 3 2 1 2 2 0 1 7 12 18 18 16 15 17 18 18 17 16 14 14 17 13 10 11 11 11 11 12 13 14 13 14 14 14 14 14 14 16 16
5 1 1 1 2 2 3 3 5 7 2 2 3 2 1 2 2 9 16 18 17 16 16 16 19 17 18 17 14 14 13 11 14 9 10 11 11 11 13 15 13 13 14 13 13 13 14 14 14
1 2 3 2 1 4 5 4 5 4 2 1 3 2 1 3 8 12 15 17 15 16 16 16 18 17 17 17 15 14 13 11 13 10 10 11 10 12 12 14 12 12 12 12 12 13 13 13 13
1 3 3 2 2 2 2 3 1 2 2 1 3 3 3 6 7 12 16 15 14 14 15 16 16 17 18 16 14 14 15 14 12 11 11 11 10 12 12 12 12 11 11 12 12 12 12 11 11
0 2 5 5 6 4 2 2 4 2 2 1 2 2 3 5 12 14 13 14 14 14 14 16 16 16 16 15 14 14 16 15 12 12 11 12 11 10 14 12 13 12 11 11 11 11 10 9 9
1 5 9 10 9 5 6 5 2 1 2 1 3 3 3 8 14 16 15 14 15 15 16 17 17 18 16 15 15 14 15 16 15 12 12 12 9 9 11 11 13 12 12 11 10 10 9 8 7
6 6 14 6 8 5 9 7 6 4 4 3 3 5 3 10 14 20 20 21 21 21 20 19 19 19 17 16 15 13 14 14 14 14 14 11 10 10 11 11 13 13 12 11 10 9 8 7 5
5 11 11 8 7 3 5 4 4 6 9 9 6 3 7 11 16 18 21 22 25 23 21 21 20 20 19 17 17 16 15 15 14 14 14 12 11 11 11 10 11 11 12 9 9 8 6 6 5
6 9 7 3 7 3 6 4 8 11 13 11 11 8 8 12 19 23 24 24 22 24 23 23 22 21 21 18 18 16 17 17 16 16 16 15 13 12 12 11 11 11 11 11 9 8 7 6 6
8 9 7 8 1 5 4 11 10 16 17 14 11 8 11 13 19 22 22 20 21 25 25 25 24 24 23 21 18 18 18 18 17 16 17 16 14 13 13 12 12 11 11 11 10 8 7 7 7
1 9 11 3 8 6 7 13 2 17 12 16 14 16 14 13 18 18 21 25 26 26 26 24 26 25 24 24 21 20 19 19 18 17 17 18 15 15 14 13 13 12 11 11 10 9 8 7 7
1 9 10 7 5 6 4 15 12 23 19 19 16 16 16 17 16 24 22 25 25 26 24 25 27 27 27 26 23 22 20 21 21 19 19 20 19 16 16 14 13 13 12 13 11 10 9 8 8
2 4 11 4 6 6 7 19 9 14 13 17 20 18 17 17 20 20 21 25 26 25 28 27 26 30 29 27 26 25 22 24 27 21 20 22 22 19 17 15 15 14 13 13 12 11 10 9 9
6 10 13 10 10 5 13 14 11 14 8 13 16 16 16 18 18 21 22 23 24 27 27 29 29 30 31 29 27 26 27 29 30 25 22 23 24 22 19 17 16 15 14 14 13 12 12 10 10
10 12 13 17 5 12 18 19 18 18 19 18 19 19 19 18 19 22 22 23 24 27 27 28 29 30 30 28 27 23 26 32 31 30 24 24 25 25 23 20 18 17 16 15 15 14 12 12 11
15 10 17 15 11 17 20 23 20 21 21 21 21 21 20 22 24 26 21 23 25 25 28 31 31 33 30 31 30 28 29 30 30 29 28 27 27 26 26 23 21 20 20 19 18 15 15 14 12
17 18 18 13 10 15 20 27 23 23 26 23 24 24 24 23 23 23 25 24 26 31 33 32 34 32 35 33 36 33 31 30 29 29 31 30 29 28 29 27 24 23 22 21 20 20 16 16 15
18 17 15 19 12 12 15 31 26 24 27 25 25 26 25 25 23 18 22 29 29 30 33 36 39 39 38 39 31 29 23 25 26 31 32 34 32 31 31 30 28 25 25 24 24 23 23 18 16
17 16 19 19 12 13 6 15 23 20 23 21 17 17 20 22 21 20 25 29 32 35 34 39 37 39 40 38 34 35 35 28 35 33 33 31 34 33 34 33 32 30 28 27 26 25 24 22 19
16 10 13 17 16 12 20 10 15 10 16 19 18 18 21 21 20 22 20 30 31 32 33 37 35 35 39 38 40 38 37 36 28 28 29 32 33 38 39 37 36 36 32 30 28 25 27 26 23
4 14 9 3 0 7 15 12 22 13 17 17 21 20 20 18 18 18 25 26 27 29 33 33 34 39 40 40 43 41 40 39 31 31 31 31 34 34 39 42 42 38 36 34 32 31 27 29 27
14 5 3 6 5 8 3 12 22 10 12 11 17 18 15 16 16 15 16 16 24 25 31 33 33 36 37 42 43 46 45 42 40 37 35 32 32 33 39 40 38 38 38 36 33 31 31 31 31
20 16 7 8 8 6 3 11 8 5 10 16 16 17 16 17 14 16 16 18 23 24 27 30 33 36 37 40 43 44 45 42 41 38 35 35 35 35 31 36 38 37 35 35 34 34 33 32 33
8 9 8 4 1 2 7 13 14 15 18 17 13 10 9 11 13 14 13 16 21 20 25 30 33 35 36 39 40 41 42 41 39 40 38 36 34 32 30 31 34 37 39 36 35 35 35 34 34
19 8 7 4 4 7 13 13 14 8 15 14 8 1 6 6 12 12 9 13 17 21 23 23 29 32 33 35 37 38 40 41 40 36 36 37 34 31 31 31 31 30 32 35 35 35 33 34 35
8 8 10 6 6 8 10 12 8 16 12 10 5 5 7 6 11 12 12 11 11 20 16 13 23 27 29 31 33 34 35 37 36 35 35 34 32 29 30 31 31 31 30 32 35 37 34 35 32
22 19 17 8 9 6 4 13 5 7 10 8 8 9 8 8 10 11 12 15 17 17 12 6 12 18 24 26 28 32 33 32 34 36 34 32 31 31 31 29 30 31 30 31 35 35 34 33 34
Wind_Direction
344 338 344 347 230 81 70 87 10 137 152 95 132 220 170 352 322 32 132 154 149 153 156 153 154 151 146 137 129 124 119 116 113 116 115 111 108 108 112 106 106 99 96 92 90 93 92 89 88
336 340 357 59 339 61 84 343 208 120 90 133 145 194 226 96 127 100 140 169 157 157 157 160 160 157 151 142 135 131 125 126 121 119 118 120 117 117 119 114 108 109 104 97 97 96 94 92 90
336 357 314 27 90 72 67 10 202 118 132 156 167 251 330 44 137 156 182 162 159 161 162 167 162 161 156 150 143 131 132 131 132 130 125 121 122 119 123 119 112 110 110 105 101 100 99 95 94
334 4 128 284 87 91 55 23 171 148 183 191 230 212 186 13 99 166 156 163 161 161 163 168 165 165 160 155 146 133 138 141 146 135 134 127 128 127 129 126 122 114 116 108 103 107 103 99 96
1 329 298 83 74 59 359 353 185 167 108 158 210 106 211 126 146 154 157 164 166 163 163 166 167 170 166 160 151 141 137 159 155 135 148 139 133 132 135 137 133 126 123 120 111 110 107 105 102
37 310 235 210 45 30 50 64 150 184 332 140 228 248 142 148 151 160 164 167 170 167 165 171 172 174 175 168 159 153 152 145 155 160 160 149 146 140 140 146 139 134 126 120 119 112 110 110 107
277 240 240 199 215 155 52 348 240 243 203 273 323 279 94 174 171 161 166 169 173 176 170 172 175 178 179 177 173 170 167 167 170 176 176 168 158 152 146 150 152 144 129 131 133 126 117 111 115
130 251 188 220 218 206 115 114 17 324 95 87 306 309 67 149 158 156 171 171 177 180 181 180 182 182 181 183 186 181 179 179 177 182 179 170 169 164 161 152 160 157 149 141 138 138 130 123 120
188 231 236 225 193 193 156 162 159 308 308 305 196 285 45 149 160 161 169 178 183 188 189 188 188 187 188 182 184 186 184 189 182 187 181 174 167 161 159 172 167 170 164 156 147 145 145 139 130
204 229 246 245 220 202 185 207 186 184 275 278 243 176 131 161 185 177 185 190 193 193 193 194 194 197 190 189 185 185 191 192 186 190 192 188 183 177 169 172 178 176 174 171 163 155 152 140 149
190 233 239 226 208 232 241 250 224 217 247 237 250 261 183 179 205 213 203 206 201 194 196 196 197 200 198 196 192 190 194 199 199 196 196 196 189 189 178 178 177 178 176 173 171 172 173 173 170
220 245 228 247 213 210 247 273 263 255 254 221 223 247 229 210 206 216 216 214 203 201 200 200 197 197 205 201 201 199 196 199 202 200 197 195 196 196 192 192 188 185 184 187 187 192 192 193 197
236 243 231 236 236 253 262 264 288 273 264 267 227 223 223 223 224 223 223 221 216 211 202 203 199 198 200 203 203 205 203 201 205 202 201 199 203 202 202 198 197 196 194 193 196 200 205 207 209
319 266 265 284 256 243 249 259 244 263 284 266 254 247 237 231 224 225 217 220 217 217 209 204 204 200 197 205 203 208 206 204 205 206 206 206 205 205 205 206 205 205 202 205 206 210 212 214 219
137 276 261 243 246 246 233 260 235 267 272 268 266 256 256 246 222 218 221 222 220 222 217 212 206 203 201 201 204 206 209 205 205 209 209 211 211 210 208 210 211 212 209 209 212 217 218 220 226
211 232 255 252 223 226 219 260 238 251 275 265 262 258 254 244 235 238 221 224 219 217 214 215 209 205 207 204 206 206 209 209 212 211 211 215 216 214 212 214 214 213 213 215 216 218 223 226 228
193 248 236 256 208 266 219 264 263 252 250 263 273 272 263 258 244 232 228 222 219 218 213 217 213 211 209 210 207 212 213 217 219 215 216 216 217 218 214 218 218 215 215 217 220 220 223 229 231
218 227 243 250 237 231 253 254 269 264 270 269 275 275 272 267 255 247 229 221 218 218 215 215 215 214 212 211 212 216 215 220 224 223 218 217 217 218 217 221 220 216 217 219 219 220 223 227 235
244 271 253 264 275 269 267 269 262 267 263 263 264 266 266 266 263 251 245 227 216 217 215 216 210 213 208 206 206 209 212 216 218 218 220 218 218 217 218 221 223 221 220 220 219 220 223 226 224
229 249 249 255 268 277 278 274 271 268 266 261 265 266 263 261 258 251 247 232 226 215 214 213 213 212 208 209 209 214 218 223 224 223 221 221 219 219 219 220 221 220 221 222 219 217 219 225 215
234 241 255 257 273 274 294 282 267 255 256 257 252 259 264 262 259 251 239 232 225 224 215 210 210 208 208 212 210 214 220 220 217 219 222 221 219 220 221 221 222 222 220 223 221 219 217 222 218
233 232 246 255 261 263 253 284 282 281 267 259 254 251 257 255 251 250 247 240 232 225 219 216 213 211 212 206 206 207 207 209 217 216 218 220 220 220 221 222 222 223 223 224 222 220 221 220 221
249 226 248 241 246 265 253 269 271 261 263 264 267 261 262 264 264 258 247 241 234 230 221 221 216 213 210 209 209 208 212 218 221 213 217 217 222 222 221 221 222 223 221 225 223 220 220 220 221
201 231 229 240 233 244 230 223 281 258 259 265 270 270 268 272 273 266 260 255 245 231 221 220 221 216 208 206 210 211 213 216 215 213 212 213 216 218 219 224 226 224 223 224 224 222 222 222 223
208 155 206 208 199 247 159 193 247 322 299 255 267 268 293 287 283 275 262 254 246 228 214 221 219 219 213 208 210 212 216 216 216 214 212 212 214 215 222 219 220 221 223 224 224 223 223 224 222
203 202 219 235 218 231 139 229 262 284 284 261 274 278 291 303 296 279 275 271 256 235 219 222 224 221 215 213 214 215 217 217 218 218 216 216 216 218 219 221 222 220 222 223 223 223 225 225 225
168 204 233 272 173 260 231 254 269 251 260 265 271 281 296 312 308 318 316 273 265 251 236 220 224 226 222 218 218 218 218 217 217 218 217 219 219 219 216 217 220 222 223 222 222 224 226 225 226
230 161 196 190 242 247 251 267 256 275 282 261 235 305 321 313 327 327 335 305 290 276 260 232 230 228 225 224 221 221 220 219 219 219 217 218 219 218 214 214 216 217 218 221 225 227 228 227 228
193 220 223 247 229 238 263 260 264 239 262 278 264 321 310 321 319 333 333 320 288 275 248 217 229 230 228 226 224 224 223 221 220 219 219 219 218 217 217 216 214 214 215 217 222 226 226 228 228
201 201 191 203 197 229 278 263 161 238 262 277 302 296 330 299 300 312 321 323 323 312 284 244 249 245 236 232 227 224 223 220 218 217 218 217 218 218 217 217 214 215 216 216 220 222 223 224 225